Oconto, WI

3:45 PM CST on December 18, 2017 (GMT -0600)
Oconto Municipal

Weather History for KOCQ - December, 2013

Change the Weather History Date:

Monday, December 9, 2013

  Actual Average Record
Temperature  
Mean Temperature 8 °F -  
Max Temperature 17 °F 30 °F 47 °F (2015)
Min Temperature -3 °F 13 °F -3 °F (2013)
Degree Days  
Heating Degree Days 58    
Moisture  
Dew Point 3 °F    
Average Humidity 73    
Maximum Humidity 91    
Minimum Humidity 57    
Precipitation  
Precipitation 0.00 in - - ()
Sea Level Pressure  
Sea Level Pressure 29.93 in    
Wind  
Wind Speed 9 mph (West)    
Max Wind Speed 24 mph    
Max Gust Speed 38 mph    
Visibility 9 miles    
Events      
Averages and records for this station are not official NWS values.
T = Trace of Precipitation, MM = Missing Value Source: NWS Daily Summary

Daily Weather History Graph

Daily Weather History Graph

Search for Another Location

Airport or City:

Trip Planner

Search our weather history database for the weather conditions in past years. The results will help you decide how hot, cold, wet, or windy it might be!

Date:

Astronomy

Dec. 09, 2013 Rise Set
Actual Time 7:17 AM CST 4:10 PM CST
Civil Twilight 6:44 AM CST 4:43 PM CST
Nautical Twilight 6:07 AM CST 5:20 PM CST
Astronomical Twilight 5:31 AM CST 5:56 PM CST
Moon 11:55 AM CST (12/9) No Moon Set
Length of Visible Light 9h 59m
Length of Day
8h 52m
Waxing Crescent, 51% of the Moon is Illuminated
Dec 9
Waxing Crescent
Dec 17
Full
Dec 25
Last Quarter
Jan 1
New
Jan 7
First Quarter

Hourly Weather History & Observations

Time (CST) Temp. Windchill Dew Point Humidity Pressure Visibility Wind Dir Wind Speed Gust Speed Precip Events Conditions
12:15 AM 12.2 °F 2.9 °F 9.1 °F 88% 29.96 in 7.0 mi NNW 5.8 mph - N/A   Overcast
12:35 AM 12.6 °F 4.8 °F 9.3 °F 87% 29.94 in 4.0 mi NNW 4.6 mph - N/A   Overcast
12:55 AM 12.6 °F 6.5 °F 9.5 °F 88% 29.93 in 5.0 mi NNW 3.5 mph - N/A   Overcast
1:15 AM 12.6 °F 6.5 °F 9.5 °F 88% 29.92 in 5.0 mi NNW 3.5 mph - N/A   Overcast
1:35 AM 12.6 °F 3.4 °F 9.5 °F 88% 29.91 in 5.0 mi NNW 5.8 mph - N/A   Overcast
1:55 AM 12.6 °F 4.8 °F 9.5 °F 88% 29.90 in 7.0 mi NNW 4.6 mph - N/A   Overcast
2:15 AM 12.7 °F 6.7 °F 9.5 °F 87% 29.89 in 10.0 mi NNW 3.5 mph - N/A   Overcast
2:35 AM 12.7 °F 6.7 °F 9.5 °F 87% 29.88 in 10.0 mi NNW 3.5 mph - N/A   Overcast
2:55 AM 12.9 °F - 9.9 °F 88% 29.88 in 10.0 mi Calm Calm - N/A   Overcast
3:15 AM 13.1 °F - 10.4 °F 89% 29.87 in 5.0 mi Calm Calm - N/A   Overcast
3:35 AM 13.1 °F 7.1 °F 10.4 °F 89% 29.86 in 4.0 mi NW 3.5 mph - N/A   Overcast
3:55 AM 13.1 °F - 10.4 °F 89% 29.86 in 3.0 mi Calm Calm - N/A   Overcast
4:15 AM 13.1 °F 7.1 °F 10.4 °F 89% 29.85 in 3.0 mi WNW 3.5 mph - N/A   Overcast
4:35 AM 13.1 °F 7.1 °F 10.4 °F 89% 29.86 in 3.0 mi WNW 3.5 mph - N/A   Overcast
4:55 AM 13.1 °F 5.4 °F 10.4 °F 89% 29.86 in 2.5 mi West 4.6 mph - N/A   Overcast
5:15 AM 12.7 °F 3.6 °F 10.4 °F 90% 29.86 in 2.5 mi West 5.8 mph - N/A   Overcast
5:35 AM 12.9 °F 2.6 °F 10.8 °F 91% 29.85 in 7.0 mi West 6.9 mph - N/A   Overcast
5:55 AM 13.5 °F 2.2 °F 10.8 °F 89% 29.86 in 10.0 mi West 8.1 mph - N/A   Overcast
6:15 AM 13.6 °F 2.5 °F 10.8 °F 88% 29.86 in 10.0 mi West 8.1 mph - N/A   Overcast
6:35 AM 13.1 °F 2.8 °F 10.0 °F 88% 29.85 in 10.0 mi West 6.9 mph - N/A   Overcast
6:55 AM 12.9 °F 3.8 °F 9.7 °F 87% 29.85 in 10.0 mi West 5.8 mph - N/A   Overcast
7:15 AM 13.1 °F 4.0 °F 10.0 °F 88% 29.86 in 10.0 mi West 5.8 mph - N/A   Overcast
7:35 AM 13.1 °F 2.8 °F 10.0 °F 88% 29.86 in 10.0 mi West 6.9 mph - N/A   Overcast
7:55 AM 13.6 °F 3.5 °F 10.0 °F 86% 29.87 in 10.0 mi West 6.9 mph - N/A   Overcast
8:15 AM 14.0 °F 3.9 °F 10.0 °F 84% 29.87 in 10.0 mi WSW 6.9 mph - N/A   Overcast
8:35 AM 14.5 °F 1.9 °F 9.7 °F 81% 29.88 in 10.0 mi West 10.4 mph - N/A   Overcast
8:55 AM 15.1 °F 1.8 °F 9.9 °F 80% 29.89 in 10.0 mi West 11.5 mph - N/A   Overcast
9:15 AM 15.4 °F 1.6 °F 9.5 °F 77% 29.88 in 10.0 mi West 12.7 mph 17.3 mph N/A   Overcast
9:35 AM 15.4 °F 3.0 °F 8.8 °F 75% 29.88 in 10.0 mi West 10.4 mph 16.1 mph N/A   Mostly Cloudy
9:55 AM 16.2 °F 1.9 °F 8.2 °F 71% 29.89 in 10.0 mi West 13.8 mph 21.9 mph N/A   Scattered Clouds
10:15 AM 16.7 °F 2.0 °F 8.4 °F 70% 29.89 in 10.0 mi West 15.0 mph - N/A   Scattered Clouds
10:35 AM 16.7 °F 1.0 °F 7.5 °F 67% 29.88 in 10.0 mi West 17.3 mph 23.0 mph N/A   Scattered Clouds
10:55 AM 16.3 °F -0.4 °F 6.6 °F 66% 29.88 in 10.0 mi West 19.6 mph 27.6 mph N/A   Scattered Clouds
11:15 AM 16.7 °F 0.1 °F 6.6 °F 65% 29.86 in 10.0 mi West 19.6 mph 23.0 mph N/A   Clear
11:35 AM 16.5 °F -0.1 °F 5.9 °F 63% 29.87 in 10.0 mi West 19.6 mph 29.9 mph N/A   Clear
11:55 AM 16.7 °F 0.5 °F 5.9 °F 63% 29.86 in 10.0 mi West 18.4 mph 28.8 mph N/A   Scattered Clouds
12:15 PM 17.2 °F 2.7 °F 6.4 °F 63% 29.85 in 10.0 mi WSW 15.0 mph 21.9 mph N/A   Scattered Clouds
12:35 PM 16.7 °F 1.0 °F 5.4 °F 61% 29.86 in 10.0 mi WSW 17.3 mph 26.5 mph N/A   Scattered Clouds
12:55 PM 16.3 °F -0.4 °F 4.8 °F 61% 29.86 in 10.0 mi WSW 19.6 mph 28.8 mph N/A   Scattered Clouds
1:15 PM 15.1 °F -0.6 °F 5.0 °F 64% 29.87 in 10.0 mi West 16.1 mph 31.1 mph N/A   Mostly Cloudy
1:16 PM 15.8 °F -1.5 °F 5.0 °F 62% 29.87 in 10.0 mi West 20.7 mph 31.1 mph N/A   Mostly Cloudy
1:35 PM 14.7 °F -2.9 °F 4.6 °F 64% 29.87 in 10.0 mi West 20.7 mph 26.5 mph N/A   Overcast
1:55 PM 14.9 °F -1.8 °F 5.2 °F 65% 29.87 in 10.0 mi West 18.4 mph 27.6 mph N/A   Overcast
2:15 PM 14.2 °F -2.7 °F 4.1 °F 64% 29.88 in 10.0 mi West 18.4 mph 31.1 mph N/A   Overcast
2:35 PM 13.8 °F -3.7 °F 3.0 °F 62% 29.88 in 10.0 mi West 19.6 mph 29.9 mph N/A   Mostly Cloudy
2:55 PM 13.1 °F -4.2 °F 2.3 °F 62% 29.89 in 10.0 mi West 18.4 mph 32.2 mph N/A   Scattered Clouds
3:15 PM 12.9 °F -5.7 °F 0.7 °F 58% 29.91 in 10.0 mi WSW 21.9 mph 28.8 mph N/A   Mostly Cloudy
3:35 PM 11.8 °F -5.3 °F -0.6 °F 58% 29.92 in 10.0 mi WSW 17.3 mph 28.8 mph N/A   Mostly Cloudy
3:55 PM 10.2 °F -9.3 °F -1.8 °F 58% 29.94 in 10.0 mi West 21.9 mph 29.9 mph N/A   Scattered Clouds
4:15 PM 8.4 °F -12.1 °F -4.0 °F 57% 29.95 in 10.0 mi West 23.0 mph 32.2 mph N/A   Clear
4:30 PM 7.7 °F -13.5 °F -4.0 °F 59% 29.96 in 10.0 mi West 24.2 mph 29.9 mph N/A   Clear
4:55 PM 6.3 °F -12.5 °F -5.1 °F 60% 29.99 in 10.0 mi West 17.3 mph 38.0 mph N/A   Clear
5:15 PM 5.5 °F -14.5 °F -6.0 °F 59% 29.99 in 10.0 mi West 19.6 mph 31.1 mph N/A   Clear
5:35 PM 4.8 °F -13.8 °F -6.7 °F 59% 30.01 in 10.0 mi West 16.1 mph 31.1 mph N/A   Clear
5:55 PM 3.7 °F -16.9 °F -6.9 °F 61% 30.01 in 10.0 mi West 19.6 mph 26.5 mph N/A   Clear
6:15 PM 3.2 °F -15.9 °F -7.6 °F 61% 30.03 in 10.0 mi West 16.1 mph 23.0 mph N/A   Clear
6:35 PM 2.3 °F -18.8 °F -7.6 °F 63% 30.04 in 10.0 mi West 19.6 mph 28.8 mph N/A   Clear
6:55 PM 1.8 °F -20.0 °F -8.0 °F 64% 30.04 in 10.0 mi West 20.7 mph 26.5 mph N/A   Clear
7:15 PM 1.4 °F -16.9 °F -8.0 °F 65% 30.05 in 10.0 mi West 13.8 mph 23.0 mph N/A   Clear
7:35 PM 0.7 °F -19.1 °F -8.5 °F 65% 30.05 in 10.0 mi West 16.1 mph 20.7 mph N/A   Clear
7:55 PM 0.5 °F -16.5 °F -8.5 °F 66% 30.06 in 10.0 mi West 11.5 mph 19.6 mph N/A   Clear
8:15 PM -0.0 °F -17.1 °F -8.7 °F 67% 30.08 in 10.0 mi West 11.5 mph 18.4 mph N/A   Clear
8:35 PM 0.1 °F -16.9 °F -8.5 °F 67% 30.08 in 10.0 mi West 11.5 mph 19.6 mph N/A   Clear
8:55 PM -0.4 °F -17.6 °F -8.9 °F 67% 30.09 in 10.0 mi West 11.5 mph - N/A   Clear
9:15 PM -0.4 °F -17.6 °F -8.7 °F 68% 30.08 in 10.0 mi West 11.5 mph 18.4 mph N/A   Clear
9:35 PM -0.9 °F -17.4 °F -9.2 °F 68% 30.08 in 10.0 mi West 10.4 mph 19.6 mph N/A   Clear
9:55 PM -1.3 °F -15.7 °F -9.2 °F 69% 30.08 in 10.0 mi West 8.1 mph - N/A   Clear
10:15 PM -1.7 °F -19.2 °F -9.4 °F 70% 30.07 in 10.0 mi West 11.5 mph - N/A   Clear
10:35 PM -1.7 °F -14.9 °F -9.4 °F 70% 30.08 in 10.0 mi West 6.9 mph - N/A   Clear
10:55 PM -1.8 °F -15.2 °F -9.4 °F 70% 30.08 in 10.0 mi WSW 6.9 mph - N/A   Clear
11:15 PM -2.2 °F -15.6 °F -9.6 °F 71% 30.08 in 10.0 mi West 6.9 mph - N/A   Clear
11:35 PM -2.9 °F -16.5 °F -9.8 °F 73% 30.08 in 10.0 mi WSW 6.9 mph - N/A   Clear
11:55 PM -3.5 °F -13.9 °F -10.1 °F 73% 30.08 in 10.0 mi WSW 4.6 mph - N/A   Clear